Regional Weather Roundup
Issued by NWS

Home | Current Version | Previous Version | Text Only | Print | Product List | Glossary Off
Versions: 1 2 3 4 5 6 7 8 9 10 11 12 13 14 15 16 17 18 19 20 21 22 23 24 25 26 27 28 29 30 31 32 33 34 35 36 37 38 39 40 41 42 43 44 45 46 47 48 49 50

000
ASUS45 KBOU 050507
RWRCO

WEATHER ROUNDUP FOR COLORADO
NATIONAL WEATHER SERVICE DENVER/BOULDER CO
1100 PM MDT TUE AUG 04 2015

NOTE: "FAIR" INDICATES FEW OR NO CLOUDS BELOW 12000 FEET WITH NO
SIGNIFICANT WEATHER AND/OR OBSTRUCTIONS TO VISIBILITY.

COZ001>005-013-030-031-050600-
...NORTHWEST COLORADO...

CITY           SKY/WX    TMP DP  RH WIND       PRES   REMARKS
CRAIG          NOT AVBL
HAYDEN         PTCLDY    64  41  42 SE5       30.25S
MEEKER         CLEAR     60  41  49 E6        30.24S
MOUNT WERNER   NOT AVBL
STEAMBOAT SPGS   N/A    N/A N/A N/A MISG        N/A
WALDEN         PTCLDY    46  36  66 SE9       30.37S
$$

COZ006>008-011-050600-
...WEST CENTRAL VALLEYS...

CITY           SKY/WX    TMP DP  RH WIND       PRES   REMARKS
GRAND JUNCTION CLEAR     73  36  25 E6        30.09R
MONTROSE       CLEAR     69  45  41 SE10      30.21R
EAGLE          CLEAR     64  41  42 E8        30.29R
RIFLE          CLEAR     69  47  45 SE13      30.17R
DELTA          CLEAR     73  41  31 NE7       30.15R
NUCLA          CLEAR     70  45  40 E10       30.25R
$$

COZ017>023-064>068-050600-
...SOUTHWEST COLORADO...

CITY           SKY/WX    TMP DP  RH WIND       PRES   REMARKS
DURANGO        CLEAR     64  42  44 N5        30.27R
CORTEZ         CLEAR     64  46  52 NE9       30.20S
PAGOSA SPRINGS CLEAR     58  40  50 CALM      30.36R
TELLURIDE      CLEAR     56  43  61 SE7       30.50S
WOLF CREEK PAS NOT AVBL
$$

COZ009-010-012-014-032>034-037-058>063-050600-
...CENTRAL COLORADO...

CITY           SKY/WX    TMP DP  RH WIND       PRES   REMARKS
ASPEN          CLEAR     56  43  61 SW7       30.36S
BUENA VISTA    CLEAR     59  39  47 NW8       30.38R
COPPER MTN     CLEAR     52  32  46 W12G18    30.68S
BERTHOUD PASS  FAIR      41  32  70 NW20G25   30.69F
COTTONWOOD PAS CLEAR     61  32  33 W8        30.52S
GUNNISON       CLEAR     57  41  54 N8        30.39S
KREMMLING      PTCLDY    55  34  44 S3        30.35R
LEADVILLE      CLEAR     48  34  58 E6        30.51S
MONARCH PASS   CLEAR     50  30  46 NW10      30.78F
SALIDA         CLEAR     63  38  40 W8        30.42R
SUNLIGHT       CLEAR     55  37  50 CALM      30.61S
WILKERSON PASS NOT AVBL
$$

COZ069>075-050600-
...SAN LUIS VALLEY/SANGRE DE CRISTO MOUNTAINS...

CITY           SKY/WX    TMP DP  RH WIND       PRES   REMARKS
ALAMOSA        PTCLDY    64  39  39 N7        30.33R
LA VETA PASS   PTCLDY    57  32  38 MISG      30.54R
SAGUACHE       NOT AVBL
$$

COZ035-036-038>040-050600-
...NORTHERN COLORADO FRONT RANGE...

CITY           SKY/WX    TMP DP  RH WIND       PRES   REMARKS
DENVER INTL AP CLEAR     64  48  56 E8        30.16R
DMNS CITY PARK   N/A     70  50  49 NW5G15    30.15R
AURORA         PTCLDY    64  53  67 SE12      30.18R
FRONT RANGE AP NOT AVBL
ERIE MUNI ARPT CLEAR     67  50  54 NW3       30.16R
BOULDER MUN AP CLEAR     68  48  49 CALM      30.17S
CENTENNIAL     PTCLDY    68  50  52 SE8       30.19R
BROOMFIELD     NOT AVBL
FORT COLLINS   CLEAR     68  54  60 CALM      30.16R
LONGMONT       CLEAR     67  52  59 W3        30.17S
$$

COZ041-046-047-076>085-087-088-050600-
...PIKES PEAK/PALMER DIVIDE AND SOUTHERN FOOTHILLS...

CITY           SKY/WX    TMP DP  RH WIND       PRES   REMARKS
COLO. SPRINGS  PTCLDY    67  54  63 N5        30.25R
A. F. ACADEMY  CLEAR     58  50  75 NE5       30.26R
ELLICOTT       CLEAR    N/A N/A N/A E13       30.22R
FALCON         CLEAR     61  53  74 E3        30.30S
FORT CARSON    MOCLDY    67  55  66 NE2       30.22R
LIMON          PTCLDY    56  53  90 N3        30.19R
MONUMENT HILL  CLEAR     57  52  82 SW9       30.29S
TRINIDAD       CLEAR     64  49  57 NW9       30.15R
$$

COZ042>045-048>051-090-091-050600-
...NORTHEAST COLORADO...

CITY           SKY/WX    TMP DP  RH WIND       PRES   REMARKS
GREELEY ARPT   CLEAR     63  54  72 CALM      30.13S
AKRON          PTCLDY    66  57  72 S8        30.11R
BURLINGTON     CLEAR     66  62  87 S8        30.09R
WRAY           PTCLDY    64  58  82 N3        30.07R
STERLING       PTCLDY    63  55  77 CALM      30.08R
HOLYOKE        PTCLDY    63  61  94 E5        30.08R
FORT MORGAN    PTCLDY    65  52  62 SW3       30.11S
$$

COZ086-089-092>099-050600-
...SOUTHEAST COLORADO...

CITY           SKY/WX    TMP DP  RH WIND       PRES   REMARKS
PUEBLO         CLEAR     75  57  53 NE5       30.14R
LA JUNTA       CLEAR     73  62  68 NE8       30.06R
LAMAR          PTCLDY    73  64  73 NE9       30.01R
SPRINGFIELD      N/A     71  63  75 S12       30.05R
$$



USA.gov is the U.S. government's official web portal to all federal, state and local government web resources and services.